GFSNE_sfc_thetae_330.txt.gz
Theta_e
321 323 320 322 323 320 320 319 313 311 312 317 315 318 318 321 327 325 325 329 328 330 330 330 330 329 327 327 328 328 328 328 328 329 330 331 332 334
323 328 326 327 323 323 319 318 317 313 311 314 315 315 316 318 322 325 322 327 326 327 329 330 329 329 329 327 327 327 328 328 327 327 328 330 332 332
325 326 324 326 325 321 323 321 318 317 310 315 317 320 319 319 322 325 325 324 324 326 329 330 329 328 328 327 327 326 326 326 327 327 327 328 330 331
321 321 322 324 323 325 324 323 321 320 317 316 316 316 318 319 321 321 320 321 323 324 327 330 328 326 326 325 326 325 323 323 324 325 325 325 328 329
321 322 323 325 323 322 323 323 323 320 319 315 315 315 315 317 318 319 320 322 321 324 327 326 326 326 325 325 324 322 320 319 319 319 320 321 322 324
321 322 323 325 323 322 322 324 323 320 318 316 315 314 314 317 315 315 316 317 317 320 321 323 325 325 325 324 324 324 321 318 316 316 317 316 316 319
319 321 323 325 324 326 325 326 323 321 318 317 315 314 314 315 315 317 315 316 318 319 318 320 319 320 321 323 324 325 321 321 318 317 316 315 315 316
318 320 320 321 322 324 326 329 327 324 321 318 317 316 319 317 316 316 315 315 315 318 317 316 318 318 321 323 323 323 321 321 320 318 317 316 315 315
319 319 319 320 324 324 323 324 325 326 327 324 321 321 319 321 319 317 316 315 316 319 316 315 319 317 322 322 321 321 320 319 319 318 317 316 315 313
322 322 321 321 321 321 322 323 324 324 324 324 326 326 324 326 321 322 321 317 317 317 317 312 319 317 321 322 321 320 319 318 317 317 316 314 312 310
323 323 321 321 320 320 322 322 323 323 322 321 322 322 322 321 322 319 317 314 314 317 315 314 317 317 318 320 323 319 317 316 315 315 315 314 311 310
322 322 320 322 318 317 322 322 320 321 322 322 322 321 322 323 321 323 321 315 316 313 319 314 316 316 315 320 321 323 323 315 312 312 312 311 309 321
320 321 322 317 315 313 314 322 320 323 321 321 320 320 321 321 320 320 321 319 316 314 319 317 316 315 315 314 318 320 322 322 323 321 309 308 307 312
321 323 323 314 311 311 312 314 312 315 319 319 318 317 318 318 320 321 321 319 320 320 322 321 314 314 315 312 312 318 319 321 321 321 322 315 309 309
321 320 316 312 309 311 311 312 312 318 317 316 316 314 315 319 320 319 320 319 317 317 317 318 315 316 315 313 313 315 315 318 321 319 320 320 320 322
319 320 319 317 315 318 318 319 319 318 316 316 317 318 317 316 317 319 317 318 316 316 320 321 319 317 313 313 313 314 317 315 319 319 320 320 320 320
315 317 316 317 315 315 314 315 317 316 316 317 317 316 315 318 318 319 317 315 311 310 311 316 320 322 319 317 312 313 314 315 318 315 316 315 318 318
311 313 313 312 311 312 313 314 316 317 320 320 319 318 316 317 315 316 315 312 310 310 309 312 314 313 314 315 318 314 315 314 313 314 314 311 312 317
309 310 310 312 313 314 315 316 317 320 320 318 318 316 314 314 313 313 311 310 308 307 308 311 311 309 304 302 310 313 312 309 310 310 312 312 309 310
309 310 311 314 315 316 318 318 318 318 317 317 316 316 315 313 313 313 309 307 306 307 307 309 309 309 307 305 306 309 308 311 309 308 308 310 311 311
315 314 315 316 318 319 318 317 316 313 312 313 314 314 315 314 313 308 309 301 302 304 302 304 307 308 309 310 306 305 308 307 308 308 309 307 306 308
317 317 318 319 318 317 316 314 313 312 312 314 315 315 312 306 303 302 300 300 300 299 299 301 303 304 304 304 303 305 305 308 308 308 308 307 308 305
320 320 320 318 316 315 314 314 313 313 313 313 314 305 303 300 299 299 300 299 299 299 299 298 300 303 303 303 302 304 305 305 305 305 306 308 308 308

GFSNE_sfc_thetae_333.txt.gz
Theta_e
330 331 328 328 329 329 328 328 322 316 317 322 319 326 324 326 330 327 327 327 327 329 330 330 330 329 328 328 328 328 328 329 329 329 330 330 331 332
330 331 330 327 327 327 327 325 325 321 318 325 324 324 323 322 324 329 329 327 328 329 330 329 330 330 330 329 329 328 328 328 328 328 329 329 330 331
332 333 331 333 327 324 323 323 321 321 317 318 324 328 327 324 325 328 327 329 327 329 329 330 329 329 329 329 328 328 327 326 327 327 327 328 329 331
330 331 328 331 333 332 329 330 329 329 325 324 327 327 327 329 327 327 325 323 326 328 328 328 329 328 327 326 326 326 325 324 325 325 325 326 327 327
330 331 332 331 329 329 332 330 330 329 329 326 325 329 328 328 328 330 329 328 326 329 328 328 327 327 326 325 325 323 321 320 321 321 321 322 323 324
329 331 331 331 328 330 329 331 330 329 330 326 325 325 326 330 327 325 325 329 328 328 329 323 325 326 327 326 325 324 322 319 317 318 318 318 318 320
327 328 330 329 326 327 325 329 330 328 327 325 323 324 323 324 324 326 324 326 329 330 327 326 326 327 327 326 327 327 324 322 320 318 317 316 316 318
327 328 329 325 327 326 326 328 330 329 328 324 322 323 328 328 327 326 324 322 319 331 325 324 327 326 327 328 327 325 322 322 321 319 318 317 317 317
330 330 329 327 327 330 327 325 326 327 328 331 329 329 328 330 331 329 328 326 324 327 327 322 325 324 327 327 324 322 321 320 319 319 318 317 316 315
332 332 332 331 332 330 330 329 329 330 330 330 331 332 333 333 333 331 330 329 328 327 329 320 324 322 326 328 325 322 320 318 318 318 317 316 313 312
332 333 332 332 326 321 328 328 329 328 324 323 324 324 324 323 324 328 325 323 320 322 327 322 323 323 325 326 328 322 319 316 316 316 316 315 312 311
330 331 325 326 321 318 328 329 327 325 326 327 329 327 325 329 323 328 327 322 321 320 327 322 322 323 319 325 327 327 327 317 313 312 313 312 311 322
327 328 330 320 315 313 315 329 328 330 329 329 329 329 329 329 328 329 328 324 322 321 326 325 322 321 320 318 322 325 326 326 327 325 310 309 309 314
328 329 330 317 312 311 314 317 315 318 327 327 326 325 324 324 326 327 329 327 328 327 329 329 320 320 319 316 315 321 323 325 326 326 327 320 311 310
329 325 317 313 310 312 311 312 313 322 324 324 322 322 323 325 329 328 329 329 328 328 326 327 324 322 320 317 316 318 318 321 324 324 325 326 325 326
322 327 323 318 314 318 320 322 323 323 322 320 322 323 324 324 325 326 324 323 321 321 326 326 324 321 319 319 318 318 319 317 322 322 323 325 326 325
319 326 325 326 325 325 325 324 324 323 323 324 323 323 324 324 324 325 323 321 315 313 315 319 322 322 323 321 315 318 317 317 320 321 320 318 321 321
317 322 324 325 323 322 322 324 324 323 325 324 323 322 321 322 321 320 320 315 312 312 312 315 314 312 313 316 319 313 314 315 315 316 314 312 314 318
318 324 323 323 323 323 324 324 324 324 325 321 319 320 320 318 318 317 317 313 312 312 313 311 310 308 305 304 311 315 312 311 311 311 312 312 312 315
322 324 323 324 324 325 325 324 322 321 319 318 317 319 319 317 317 317 316 313 309 310 308 308 308 308 306 305 306 310 307 312 311 310 309 311 313 313
325 325 325 325 326 325 324 322 321 318 317 316 316 316 319 318 316 317 316 304 304 304 303 304 307 307 308 308 306 307 311 309 311 310 309 307 307 308
327 326 326 327 326 323 320 319 317 316 316 316 315 314 316 316 313 309 306 303 304 305 305 307 309 308 307 305 303 306 307 310 311 309 308 307 306 303
327 327 326 326 324 321 318 316 315 314 314 314 313 314 315 311 309 305 304 304 305 306 306 305 306 307 306 306 305 305 308 308 308 307 308 308 308 308

GFSNE_sfc_thetae_339.txt.gz
Theta_e
338 340 340 338 341 338 337 341 335 326 326 332 329 330 328 330 333 333 334 332 327 328 330 330 330 330 330 329 329 330 331 330 330 330 331 331 332 333
337 339 341 335 335 334 332 332 330 326 323 330 331 332 331 328 330 329 331 331 333 333 331 330 330 330 331 331 331 331 330 330 330 330 330 330 330 331
338 338 336 339 334 338 336 333 327 327 324 324 327 333 333 333 329 330 331 331 331 334 330 329 329 329 330 330 330 330 330 330 329 328 328 329 329 330
334 336 334 333 337 341 335 338 335 331 329 327 331 332 332 334 331 332 328 325 327 333 333 331 330 329 328 329 328 327 326 326 327 327 326 326 327 328
337 338 335 335 335 333 336 333 332 329 331 329 330 330 328 330 332 337 336 340 331 337 333 332 330 329 329 327 326 325 323 322 323 323 324 324 325 326
335 335 335 334 334 333 332 334 335 331 333 326 323 324 326 334 330 327 328 333 328 328 333 332 330 330 329 327 326 326 322 320 320 320 321 321 321 322
333 334 333 333 331 329 329 334 336 330 324 323 323 323 323 328 333 326 324 329 333 330 328 330 329 330 330 329 330 329 326 324 321 320 320 319 319 319
329 330 331 331 328 329 328 328 326 332 332 325 324 326 334 330 329 327 326 323 321 331 329 327 331 327 330 332 336 332 326 325 323 321 320 319 319 319
330 330 329 326 331 330 326 327 326 326 326 330 329 330 333 334 339 335 336 330 327 329 331 327 332 329 332 330 331 327 325 323 322 321 320 319 318 317
332 332 332 331 332 331 330 329 331 330 329 326 330 331 334 339 341 339 338 337 332 333 336 325 329 329 332 333 330 325 322 321 320 320 318 317 315 314
332 334 332 333 328 325 330 327 328 327 326 326 327 326 324 323 326 330 324 321 320 324 334 329 327 327 329 330 333 325 322 319 318 318 318 316 314 313
333 333 328 330 324 322 333 330 328 329 329 330 330 328 326 330 324 331 326 321 323 323 334 329 325 327 322 328 329 330 330 320 315 315 315 314 312 321
326 328 330 322 318 316 319 332 331 335 333 332 330 330 332 332 334 336 335 330 328 326 332 331 327 326 325 323 326 328 328 326 328 326 310 310 309 312
329 331 334 317 315 314 317 319 317 321 330 328 327 327 329 329 331 334 334 337 336 337 338 341 329 326 323 321 320 324 325 327 328 327 329 321 311 311
329 326 319 317 314 314 313 315 315 326 325 324 325 328 331 330 339 337 339 342 340 339 335 339 335 331 326 321 319 320 319 323 326 325 325 325 325 326
324 326 325 322 319 321 324 322 326 328 328 327 328 329 333 332 334 333 329 328 327 328 336 335 336 331 323 321 319 317 320 317 323 323 325 329 325 325
325 328 327 329 329 331 331 331 330 330 330 331 330 329 330 330 329 329 327 326 324 322 321 326 330 328 325 326 317 317 317 318 321 322 324 319 320 319
325 328 327 327 327 326 330 330 335 330 332 332 330 329 327 325 323 324 323 321 320 319 317 321 320 319 320 322 323 317 317 314 317 321 320 315 314 318
323 324 325 327 329 329 331 331 329 331 341 330 329 325 323 322 319 318 317 317 316 317 320 319 319 315 311 308 314 318 317 316 314 314 315 313 312 316
321 324 327 330 330 328 332 330 330 329 328 327 325 323 322 319 317 315 317 317 318 319 317 318 317 315 312 309 309 312 311 313 311 311 312 315 317 314
326 328 328 330 332 330 333 334 335 329 326 324 322 321 319 317 316 315 316 310 313 316 315 315 317 312 314 314 308 308 313 310 311 312 313 312 310 309
328 331 332 331 330 334 335 334 332 328 326 322 321 319 317 317 317 317 316 314 316 315 313 313 317 313 311 308 306 309 308 311 312 310 310 309 309 305
331 331 331 329 333 335 332 331 329 326 324 322 320 321 320 317 318 317 316 315 313 312 312 310 311 311 308 307 307 308 310 310 308 308 310 310 309 309

GFSNE_sfc_thetae_345.txt.gz
Theta_e
337 335 334 332 327 330 330 335 326 320 321 321 320 323 323 326 331 329 325 335 336 332 329 329 329 330 330 330 330 330 330 330 330 331 330 329 330 332
331 331 331 330 329 327 325 327 326 321 321 327 324 323 322 324 329 326 323 334 336 334 330 329 330 330 330 330 330 330 330 329 330 331 330 330 330 330
330 328 329 326 323 322 319 321 319 322 316 319 322 322 318 320 323 322 321 328 326 335 333 331 330 329 330 330 330 330 330 329 329 330 329 329 329 328
328 329 327 330 324 321 318 323 319 320 318 311 319 320 319 320 318 319 322 325 323 332 334 332 331 329 328 328 328 327 327 327 327 327 328 328 327 327
327 329 328 328 326 325 325 324 325 326 318 320 320 323 323 324 321 322 322 323 328 334 335 332 331 330 328 326 326 324 322 322 323 323 324 325 326 326
329 330 330 327 325 325 324 324 323 322 320 316 315 317 319 321 320 319 322 324 324 330 333 329 330 331 331 328 327 325 322 319 318 318 319 320 321 322
328 329 328 330 334 331 325 320 323 322 320 319 318 319 320 322 320 323 318 318 320 323 322 322 320 320 321 327 330 329 325 322 319 318 317 317 317 318
326 326 327 336 330 330 329 325 319 315 317 319 317 318 321 325 322 319 318 317 315 323 320 319 322 322 324 324 330 328 325 323 321 320 319 317 316 317
324 323 325 329 327 321 326 326 323 323 321 315 313 316 318 318 322 321 320 318 316 321 319 317 322 322 325 326 327 326 325 323 321 321 320 318 317 316
324 323 322 321 323 322 318 314 314 315 317 319 312 310 316 317 319 323 322 320 322 324 322 316 320 320 324 326 328 327 324 321 321 320 319 317 314 312
325 325 324 321 326 326 321 318 317 319 326 324 320 320 321 323 323 323 319 317 314 314 317 319 318 322 322 324 324 325 322 319 318 318 318 316 313 311
321 323 328 325 326 322 319 318 316 318 320 320 319 320 323 322 324 320 314 311 311 310 315 316 321 320 315 320 322 323 318 318 315 314 315 314 311 313
320 321 324 322 319 319 318 321 320 321 325 324 324 323 320 320 322 321 320 317 315 313 319 322 319 319 318 316 319 320 319 318 318 318 311 309 308 313
317 320 322 317 315 314 315 319 319 322 321 320 320 320 320 321 323 324 324 323 323 320 324 325 322 322 317 313 314 316 316 316 315 314 316 315 312 310
318 320 321 315 315 314 314 316 317 317 317 316 316 317 319 323 322 323 326 329 327 327 329 329 325 321 320 315 314 314 312 312 313 313 314 313 315 315
319 317 318 318 320 321 319 315 316 318 318 317 316 318 319 318 321 324 321 323 324 325 330 328 327 323 318 317 316 312 312 309 310 311 312 313 316 316
318 317 316 316 316 316 317 319 319 318 319 320 319 319 319 320 322 323 320 317 315 315 315 319 324 324 322 318 312 312 311 309 311 310 311 309 309 311
316 317 318 318 318 318 319 320 320 321 321 321 321 321 320 321 322 321 320 317 314 313 313 313 316 315 314 315 319 311 309 309 309 307 306 303 303 305
316 318 318 319 320 320 320 320 321 322 324 324 322 322 323 323 321 318 318 314 311 309 309 309 311 309 306 304 309 316 310 308 304 301 303 302 301 303
312 314 318 320 320 319 318 317 317 321 323 322 322 323 326 325 319 314 313 311 309 308 309 311 310 309 307 306 306 308 311 304 302 301 301 302 304 311
313 314 316 317 318 319 320 320 320 322 323 323 321 322 325 321 316 315 313 308 308 308 307 310 312 315 312 309 303 302 305 308 307 303 301 300 299 299
318 317 317 318 318 319 319 319 319 320 322 322 320 320 322 321 319 316 313 308 307 307 308 311 311 310 307 305 302 301 301 302 307 310 309 306 299 296
318 319 319 317 318 320 322 322 322 320 318 321 324 323 321 318 317 314 312 310 308 308 308 308 308 305 305 305 302 300 300 300 300 301 302 308 309 309

GFSNE_sfc_thetae_351.txt.gz
Theta_e
336 335 335 335 334 335 333 332 325 315 315 316 323 327 329 328 331 331 325 335 336 333 330 329 330 331 332 332 331 331 331 331 329 329 328 328 330 331
334 334 332 333 333 330 331 332 328 323 317 323 323 322 326 328 330 329 325 330 335 336 333 329 328 329 330 330 330 330 329 329 329 330 330 329 328 329
329 331 330 327 326 322 325 330 327 325 321 321 323 321 320 321 323 329 327 323 322 332 335 332 329 328 329 329 329 330 330 330 329 329 330 329 328 326
327 326 323 323 319 317 320 323 326 324 323 318 318 317 317 317 318 319 324 322 319 328 332 334 332 329 328 328 327 327 326 327 328 328 328 328 329 327
326 325 325 321 320 321 322 320 318 318 317 317 315 316 317 316 314 315 315 315 320 329 332 333 333 331 328 326 326 323 321 321 322 323 324 325 326 327
327 328 328 325 323 322 321 320 318 316 315 314 313 316 315 317 315 313 314 318 320 326 331 328 330 331 331 328 327 326 321 318 317 317 319 318 319 323
327 329 329 330 331 326 322 320 317 315 315 314 314 314 314 315 315 316 314 315 317 319 317 319 318 318 319 325 329 330 326 323 319 317 316 315 315 317
326 326 327 333 331 330 329 328 323 318 315 314 314 315 316 317 316 315 313 312 310 318 315 313 318 319 321 322 327 327 324 323 322 319 317 315 315 315
327 325 325 329 328 325 327 326 327 327 324 317 315 314 315 318 317 314 314 313 312 316 315 312 315 316 318 321 324 324 323 321 321 320 318 316 315 314
328 326 323 323 324 321 319 316 314 313 315 317 315 315 315 317 319 318 318 316 316 317 317 313 315 313 316 318 324 324 323 321 319 319 317 315 313 311
324 321 320 319 321 322 317 316 314 311 317 319 317 316 317 318 317 314 312 313 310 312 316 314 313 313 316 318 320 322 319 316 316 316 317 315 312 311
319 319 323 319 319 319 317 314 310 311 313 316 317 318 319 315 320 313 313 312 310 307 310 314 310 313 314 316 318 318 320 317 315 314 314 312 309 313
314 315 319 319 316 313 315 315 315 315 318 315 315 314 316 316 316 317 316 316 310 311 313 315 313 315 315 314 316 318 317 315 315 314 312 308 308 312
311 311 312 315 312 311 313 316 314 317 315 315 314 315 316 318 318 317 318 318 318 317 318 317 315 317 316 315 313 315 316 314 313 311 312 311 310 309
311 313 314 312 311 312 312 313 314 316 316 314 315 316 317 320 317 316 318 318 317 317 321 318 318 317 319 316 318 316 313 314 312 311 310 310 309 310
316 314 315 315 314 315 315 314 314 317 318 318 316 318 315 313 313 313 313 314 315 317 321 319 320 320 320 320 315 312 313 312 310 310 309 308 309 310
310 310 311 311 311 312 312 313 316 316 315 315 313 313 312 311 312 312 313 313 314 314 315 317 322 321 321 316 313 313 312 310 311 310 307 306 306 307
314 314 314 312 312 314 314 315 310 314 313 314 314 314 314 313 314 313 314 314 313 314 313 314 313 314 313 315 321 314 312 313 310 308 307 304 302 304
319 317 317 317 315 316 316 315 314 313 314 315 315 314 315 315 313 314 315 316 315 317 316 314 312 312 309 311 313 318 315 309 307 305 305 302 303 304
315 316 317 317 317 317 317 316 315 314 314 315 315 316 316 316 315 315 315 316 316 317 316 310 311 313 313 313 312 309 312 314 309 307 301 300 302 308
313 317 319 318 318 318 317 316 316 315 315 316 317 318 318 317 317 317 318 312 313 316 314 313 313 318 315 310 305 304 306 310 312 311 301 300 299 298
315 315 318 318 319 318 318 317 316 316 316 316 317 318 319 319 319 318 318 318 316 317 317 319 314 311 308 310 310 308 303 304 310 310 308 307 299 296
315 316 316 317 316 316 317 317 317 317 316 316 316 316 317 316 317 318 318 317 318 316 315 315 306 309 310 310 310 309 304 303 301 305 304 308 308 308

GFSNE_sfc_thetae_357.txt.gz
Theta_e
337 337 338 337 338 338 337 336 332 325 329 337 337 344 336 336 339 339 335 337 335 332 330 330 332 334 333 333 333 332 331 330 329 328 328 328 329 331
341 339 340 342 341 339 338 337 334 332 326 328 328 336 337 333 336 338 335 336 336 333 331 328 330 331 331 331 330 329 329 327 327 327 326 326 326 327
341 341 341 340 338 336 336 337 332 330 327 326 330 328 335 335 335 338 336 332 332 334 334 332 328 329 330 329 330 330 330 330 330 330 329 328 326 325
341 340 337 335 333 332 331 332 333 328 327 322 324 324 327 338 340 340 335 332 334 333 332 334 331 328 328 328 328 328 328 328 329 329 329 330 329 327
341 341 341 339 339 336 335 334 334 330 332 327 323 325 325 330 333 336 336 337 333 332 331 333 333 331 328 326 326 324 322 322 324 325 326 327 328 329
340 339 339 338 337 333 331 333 335 333 328 328 327 324 325 327 330 327 326 330 328 327 330 331 333 333 332 329 327 325 321 318 318 319 320 321 322 325
337 339 339 336 334 334 331 333 337 335 333 330 326 324 322 322 324 326 325 325 330 333 332 331 333 334 336 332 334 331 325 323 320 318 317 316 317 319
336 337 337 334 331 330 330 331 333 331 331 329 328 327 329 328 327 324 324 325 322 333 332 331 334 333 334 335 333 330 326 325 323 321 318 316 316 317
335 335 334 336 336 333 329 328 327 327 332 335 331 330 330 332 333 330 331 330 327 332 333 328 331 330 333 332 327 325 324 323 323 322 320 318 316 315
334 336 335 336 335 334 334 334 334 332 331 330 336 335 337 338 337 336 336 335 333 332 337 324 332 329 332 332 326 324 322 321 322 321 319 317 314 312
334 335 334 335 327 326 334 332 332 332 318 320 323 323 323 327 332 333 329 326 324 327 333 329 329 329 330 328 331 324 322 320 319 319 319 316 312 311
332 334 328 333 321 321 334 332 329 329 329 328 327 320 322 324 324 335 333 328 326 325 333 329 328 328 319 326 330 334 334 317 315 315 316 314 311 329
331 330 329 320 316 315 321 334 330 332 330 331 328 327 329 330 328 327 329 323 323 324 329 328 324 322 321 328 332 335 335 332 333 327 310 310 309 318
331 333 331 316 312 312 318 320 317 320 329 328 326 326 327 327 329 332 333 328 326 330 334 335 324 324 325 327 327 332 334 335 335 333 334 317 309 311
330 329 319 312 311 314 313 315 314 328 328 326 325 326 328 330 334 333 335 336 335 334 333 336 329 331 329 328 327 329 329 333 335 333 333 331 330 329
322 327 323 321 319 323 323 320 328 329 328 327 326 328 330 330 330 331 328 327 328 330 337 336 335 333 329 329 327 327 331 329 333 334 333 332 332 331
326 326 322 322 325 326 327 328 328 328 326 327 328 328 329 330 329 330 330 327 325 325 326 331 336 336 332 333 325 328 330 330 333 333 333 330 330 329
322 324 324 325 323 322 321 322 324 324 326 327 327 327 326 327 327 329 329 327 324 324 324 326 328 329 327 330 329 328 331 331 332 333 333 328 327 329
325 325 325 326 326 326 326 324 323 322 327 324 326 326 326 324 325 326 327 326 324 326 327 328 328 326 323 320 329 324 329 331 332 331 331 329 327 327
327 327 327 328 328 328 327 326 327 328 327 325 322 323 324 325 324 324 325 326 326 326 326 327 328 329 326 324 327 330 314 333 332 330 330 331 330 313
325 326 328 329 330 330 330 330 331 329 329 329 329 327 325 324 322 322 323 314 318 325 323 324 330 325 332 333 327 328 331 315 326 334 334 329 326 326
327 327 328 329 329 330 330 330 330 329 329 329 329 329 329 329 326 323 321 320 322 323 323 327 334 331 329 326 325 328 328 332 317 317 315 317 327 321
327 328 328 328 328 331 332 330 329 329 329 329 328 328 328 327 328 328 326 325 325 325 327 327 329 329 328 326 323 325 328 329 329 329 326 318 313 313

GFSNE_sfc_thetae_360.txt.gz
Theta_e
347 344 340 337 338 340 338 336 331 328 329 340 345 349 345 344 345 341 337 339 336 334 333 334 337 338 337 338 337 337 336 335 333 332 331 331 332 334
347 344 341 339 338 338 337 336 336 334 327 334 335 342 340 336 341 340 335 335 336 334 331 331 333 335 334 334 334 333 333 333 332 331 329 328 328 331
341 342 339 340 341 341 340 339 335 334 330 328 332 334 335 332 334 340 336 331 331 334 333 330 330 332 332 332 332 331 331 332 332 331 330 328 327 327
342 342 340 343 343 344 340 337 337 333 328 322 325 326 332 333 334 335 334 330 334 335 335 334 329 329 329 329 329 329 329 329 330 330 331 331 330 327
339 340 341 342 338 335 334 333 331 331 332 328 326 327 327 333 335 336 339 340 333 335 334 334 333 329 328 327 327 325 323 324 326 327 328 328 330 331
341 342 341 341 341 341 341 340 339 332 329 330 327 326 327 327 336 335 332 334 330 328 331 331 334 333 331 328 327 326 321 319 319 320 321 322 324 327
339 341 341 342 339 339 335 338 344 340 333 327 327 328 332 329 327 328 328 329 333 331 326 328 331 332 333 332 333 330 325 322 320 318 318 317 318 321
337 339 341 334 333 333 332 336 344 342 343 340 337 332 331 331 331 330 327 325 321 333 331 328 331 331 333 335 333 332 327 325 324 322 319 317 317 317
338 340 338 334 334 334 329 330 332 329 334 340 341 338 337 336 336 331 335 329 324 328 335 325 331 330 333 333 330 329 327 325 324 323 321 319 317 316
337 338 339 339 339 337 335 333 332 332 334 335 341 340 341 338 338 338 338 339 337 333 338 325 331 328 331 333 328 327 325 323 322 322 321 319 315 313
333 339 339 339 329 328 335 335 336 334 323 324 325 327 329 331 335 333 330 328 325 326 335 327 333 328 331 331 331 324 322 320 320 320 320 318 314 312
332 337 330 335 323 323 338 338 335 335 332 330 328 326 332 332 327 340 334 326 324 323 334 327 326 332 325 331 328 332 331 319 317 317 317 315 311 330
334 334 334 322 317 317 320 341 335 338 333 334 332 330 329 331 330 333 337 332 325 324 337 334 327 328 327 323 328 332 335 332 334 327 311 311 310 319
336 333 334 317 314 314 319 322 319 324 332 328 327 325 326 326 328 329 334 334 332 334 337 343 328 326 324 321 319 332 336 335 334 332 332 321 311 312
336 334 325 313 311 315 315 318 318 331 328 325 324 325 326 328 333 335 336 339 338 334 331 342 331 333 326 323 325 332 332 335 334 335 338 333 333 331
326 331 328 326 323 329 326 323 331 330 327 324 324 326 328 328 329 329 328 329 328 327 338 338 339 336 326 325 328 329 330 328 335 334 335 335 336 334
331 335 331 331 331 330 329 329 329 328 326 326 325 325 326 327 327 329 327 327 325 324 325 335 341 341 336 339 329 330 329 329 332 334 338 331 333 334
329 332 330 330 329 327 327 327 328 327 327 326 325 326 325 325 326 328 328 327 325 325 324 326 330 334 333 336 333 328 328 329 332 337 337 330 329 332
326 328 326 325 325 324 323 323 322 324 333 326 325 326 326 326 325 326 326 327 326 326 326 327 325 326 324 321 328 325 328 329 331 333 332 332 331 332
329 328 326 325 325 325 326 326 328 327 327 326 324 324 325 325 324 324 325 325 326 327 326 327 327 326 325 323 324 329 315 334 331 331 331 334 334 319
326 325 326 326 326 328 330 330 333 330 329 330 330 328 326 324 324 324 323 314 319 327 325 325 329 326 332 332 328 328 331 313 327 337 335 332 331 331
325 325 326 328 329 330 331 330 331 330 332 330 330 330 331 331 328 326 325 324 324 323 323 326 332 330 328 326 325 329 329 333 318 317 318 320 330 327
326 327 327 329 331 331 331 331 331 332 332 332 332 332 332 329 329 329 328 327 326 323 322 322 324 328 328 328 325 326 332 333 329 325 331 318 315 315